Voltar ao catálogo

SL-14 DEB

AtivoPO
NORAD 45290·DEBRIS·🇷🇺 Russia

Lançado Aug 15, 1991 de Plesetsk Cosmodrome

Loading…

Próximas Passagens (próximas 24 horas)

TLE

AtualizadoSource: Space-Track

Época: Sep 14, 2026, 08:52 UTC

1 45290U 91056AC  26257.36947277  .00000142  00000-0  21764-3 0  9998
2 45290  82.6356  36.2736 0098594  40.8015 320.0451 13.43205322320399

Acompanhe SL-14 DEB em tempo real com AllMySat

Download on the App Store